Вернуться в каталог

ONEWEB-0649

АктивенСвязьPO
NORAD 55812·PAYLOAD·🇬🇧 United Kingdom

Запущен Mar 9, 2023 с Cape Canaveral Space Force Station

Loading…

Ближайшие Пролёты (ближайшие 24 часа)

TLE

СвежийSource: CelesTrak SupGP

Эпоха: Sep 14, 2026, 15:30 UTC

1 55812C 23029S   26257.64597639 -.00000363  00000+0 -90674-3 0  2577
2 55812  87.9106 287.1505 0002019  86.9050  26.6086 13.19724384    13

Отслеживайте ONEWEB-0649 в реальном времени с AllMySat

Download on the App Store